Showing default

ICEYE-X2, 43800

Orbit data source: Space-Track

ICEYE-X2, 43800 is a payload satellite owned by ICEYE (FI) in SSO that was launched on Mon, 03 Dec 2018 UTC via an FALCON 9 launch vehicle from the Air Force Western Test Range (AFWTR). Payload-class satellites include a variety of spacecraft equipped with specific instruments for various scientific and technological missions. These include communications satellites like Starlink; space stations such as the ISS; scientific satellites like the Hubble; Earth observation satellites from companies like Planet Labs, Umbra, and HawkEye 360; GPS; miniature CubeSats for education and research; and military/defense satellites.

Loading next visibility...
Identifier
43800, 2018-099AU
Orbit
SSO
Country
Flag of FIFI / FIN
Related business
Manufacturer
ICEYE
Mission
Operational Commercial Radar Imaging
Bus & Motor
ICEYE, Unknown motor
Mass
80 kg wet, 80 kg dry
Launch date (UTC)
2018-12-03 (7 years ago)
Launch vehicle
FALCON 9
Launch site
Air Force Western Test Range (AFWTR)
Object type
Payload
Rocket body
Debris
Shape & HBR
Box + 1 Pan, 1.6 m
Radar Cross Section
1.837 m², Medium (>0.1 m² and < 1m²)

Expand to show TLE details & history
Last TLE update: 9 hours ago

TLE from 9 hours ago
0 ICEYE-X2
1 43800U 18099AU  26034.62296725  .00011076  00000-0  57990-3 0  9994
2 43800  97.4560  90.8593 0011679  52.0674 308.1612 15.15930028392571
Epoch: 2026-02-03T14:57Z
TLE epoch observation values (Epoch: 2026-02-03T14:57:04.370Z)
Latitude
-0.00007°
Longitude
92.78985°
Altitude
516.268 km
Speed
7.608 km/s
True Right ascension
06h 03m 26s
True Declination
0° 00' 00"
Sunlit
Object was in full shadow at epoch
Visualization orbit readout
Latitude
Unknown
Longitude
Unknown
Altitude
Unknown
Speed
Unknown
Apparent Right ascension
Unknown
Apparent Declination
Unknown
Sunlit
N/A
Visualization observer readout
Local Sidereal Time
02:09:46
Azimuth
Unknown
Elevation
Unknown
Doppler factor
Unknown
Orbital elements
Apogee altitude
523.181 km
Perigee altitude
507.079 km
Semi-major axis
6,893.267 km
Eccentricity
0.00117
Inclination
97.456°
RAAN
90.8593°
Arg. of periapsis
52.0674°
True anomaly
308.05588°
Mean anomaly
308.1612°
Eccentric anomaly
308.10855°
Mean motion
3.79232 °/min
Orbital period
94.93 mins
BSTAR
0.0005799
Loading maneuver chart data...
Computing Atmospheric mass density...
Loading historical data...
Loading historical data...
Loading historical data...
Loading historical data...
Loading historical data...
Loading historical data...
Loading historical data...

Documentation

Showing up to 5 results
|